Sevilla, Spain

11:12 AM CEST on July 21, 2017 (GMT +0200)
San Pablo

Weather History for LEZL - November, 2013

Change the Weather History Date:

Friday, November 15, 2013

  Actual Average Record
Temperature  
Mean Temperature 58 °F -  
Max Temperature 66 °F 63 °F 75 °F (2012)
Min Temperature 50 °F 46 °F 37 °F (2001)
Degree Days  
Heating Degree Days 7    
Growing Degree Days 8 (Base 50)    
Moisture  
Dew Point 34 °F    
Average Humidity 43    
Maximum Humidity 67    
Minimum Humidity 28    
Precipitation  
Precipitation 0.00 in - - ()
Sea Level Pressure  
Sea Level Pressure 30.11 in    
Wind  
Wind Speed 8 mph ()    
Max Wind Speed 18 mph    
Max Gust Speed -    
Averages and records for this station are not official NWS values.
T = Trace of Precipitation, MM = Missing Value Source: Averaged Metar Reports

Daily Weather History Graph

Daily Weather History Graph

Search for Another Location

Airport or City:

Trip Planner

Search our weather history database for the weather conditions in past years. The results will help you decide how hot, cold, wet, or windy it might be!

Date:

Astronomy

Nov. 15, 2013 Rise Set
Actual Time 8:03 AM CET 6:12 PM CET
Civil Twilight 7:35 AM CET 6:40 PM CET
Nautical Twilight 7:03 AM CET 7:12 PM CET
Astronomical Twilight 6:32 AM CET 7:43 PM CET
Moon 4:59 PM CET (11/15) 5:47 AM CET (11/15)
Length of Visible Light 11h 05m
Length of Day
10h 09m
Waxing Gibbous, 95% of the Moon is Illuminated
Nov 15
Waxing Gibbous
Nov 17
Full
Nov 25
Last Quarter
Dec 3
New
Dec 9
First Quarter

Hourly Weather History & Observations

Time (CET) Temp. Dew Point Humidity Pressure Visibility Wind Dir Wind Speed Gust Speed Precip Events Conditions
12:00 AM 55.4 °F 41.0 °F 58% 30.24 in - NE 4.6 mph - N/A   Clear
12:30 AM 53.6 °F 41.0 °F 62% 30.24 in - NNE 3.5 mph - N/A   Clear
1:00 AM 51.8 °F 41.0 °F 67% 30.24 in - Variable 1.2 mph - N/A   Clear
4:30 AM 50.0 °F 39.2 °F 66% 30.18 in - NE 6.9 mph - N/A   Clear
5:00 AM 50.0 °F 39.2 °F 66% 30.18 in - NE 8.1 mph - N/A   Clear
5:30 AM 51.8 °F 37.4 °F 58% 30.18 in - NE 10.4 mph - N/A   Clear
6:00 AM 51.8 °F 37.4 °F 58% 30.18 in - NE 8.1 mph - N/A   Clear
6:30 AM 50.0 °F 37.4 °F 62% 30.18 in - East 3.5 mph - N/A   Clear
7:00 AM 50.0 °F 37.4 °F 62% 30.18 in - ENE 6.9 mph - N/A   Clear
7:30 AM 50.0 °F 37.4 °F 62% 30.18 in - NE 8.1 mph - N/A   Clear
8:00 AM 50.0 °F 37.4 °F 62% 30.18 in - ENE 11.5 mph - N/A   Clear
8:30 AM 50.0 °F 35.6 °F 58% 30.21 in - ENE 9.2 mph - N/A   Clear
9:00 AM 53.6 °F 33.8 °F 47% 30.18 in - ENE 17.3 mph - N/A   Clear
9:30 AM 55.4 °F 35.6 °F 47% 30.18 in - ENE 15.0 mph - N/A   Clear
10:00 AM 55.4 °F 35.6 °F 47% 30.21 in - ENE 13.8 mph - N/A   Clear
10:30 AM 59.0 °F 33.8 °F 39% 30.18 in - NE 17.3 mph - N/A   Clear
11:00 AM 59.0 °F 35.6 °F 42% 30.18 in - NE 15.0 mph - N/A   Clear
11:30 AM 60.8 °F 33.8 °F 36% 30.15 in - NE 13.8 mph - N/A   Clear
12:00 PM 62.6 °F 32.0 °F 32% 30.15 in - NE 13.8 mph - N/A   Clear
12:30 PM 64.4 °F 33.8 °F 32% 30.12 in - ENE 13.8 mph - N/A   Clear
1:00 PM 64.4 °F 33.8 °F 32% 30.09 in - NE 13.8 mph - N/A   Clear
1:30 PM 64.4 °F 33.8 °F 32% 30.09 in - ENE 15.0 mph - N/A   Clear
2:00 PM 66.2 °F 32.0 °F 28% 30.06 in - ENE 13.8 mph - N/A   Clear
2:30 PM 66.2 °F 33.8 °F 30% 30.06 in - NE 8.1 mph - N/A   Clear
3:00 PM 66.2 °F 33.8 °F 30% 30.04 in - North 5.8 mph - N/A   Clear
3:30 PM 66.2 °F 33.8 °F 30% 30.04 in - NNE 5.8 mph - N/A   Clear
4:00 PM 66.2 °F 33.8 °F 30% 30.04 in - NNE 8.1 mph - N/A   Clear
4:30 PM 64.4 °F 33.8 °F 32% 30.04 in - North 18.4 mph - N/A   Clear
5:00 PM 64.4 °F 33.8 °F 32% 30.04 in - North 15.0 mph - N/A   Clear
5:30 PM 64.4 °F 33.8 °F 32% 30.04 in - North 12.7 mph - N/A   Clear
6:00 PM 62.6 °F 35.6 °F 37% 30.04 in - North 13.8 mph - N/A   Clear
6:30 PM 62.6 °F 35.6 °F 37% 30.04 in - North 8.1 mph - N/A   Clear
7:00 PM 60.8 °F 35.6 °F 39% 30.04 in - North 10.4 mph - N/A   Clear
7:30 PM 60.8 °F 32.0 °F 34% 30.04 in - NNE 12.7 mph - N/A   Clear
8:00 PM 60.8 °F 30.2 °F 31% 30.04 in - NNE 10.4 mph - N/A   Clear
8:30 PM 59.0 °F 30.2 °F 34% 30.04 in - NNE 12.7 mph - N/A   Clear
9:00 PM 59.0 °F 30.2 °F 34% 30.04 in - NNE 9.2 mph - N/A   Clear
9:30 PM 57.2 °F 28.4 °F 33% 30.04 in - NE 9.2 mph - N/A   Clear
10:00 PM 55.4 °F 28.4 °F 36% 30.04 in - ENE 6.9 mph - N/A   Clear
10:30 PM 55.4 °F 30.2 °F 38% 30.06 in - East 4.6 mph - N/A   Clear
11:00 PM 55.4 °F 30.2 °F 38% 30.06 in - ENE 8.1 mph - N/A   Clear
11:30 PM 53.6 °F 28.4 °F 38% 30.06 in - NE 8.1 mph - N/A   Clear